Regional Weather Roundup
Issued by NWS

Home | Current Version | Previous Version | Graphics & Text | Print | Product List | Glossary Off
Versions: 1 2 3 4 5 6 7 8 9 10 11 12 13 14 15 16 17 18 19 20 21 22 23 24 25 26 27 28 29 30 31 32 33 34 35 36 37 38 39 40 41 42 43 44 45 46 47 48 49 50

000
ASUS43 KMKX 252000
RWRWI

WISCONSIN REGIONAL WEATHER ROUNDUP
NATIONAL WEATHER SERVICE MILWAUKEE/SULLIVAN WI
300 PM CDT FRI JUL 25 2014

NOTE: "FAIR" INDICATES FEW OR NO CLOUDS BELOW 12,000 FEET WITH NO
SIGNIFICANT WEATHER AND/OR OBSTRUCTIONS TO VISIBILITY.

WIZ001-002-006>008-014>016-023>028-252100-
NORTHWEST WISCONSIN

CITY           SKY/WX    TMP DP  RH WIND       PRES   REMARKS
SUPERIOR ARPT  CLOUDY    66  60  82 NE5       29.80R
ASHLAND        CLOUDY    74  66  76 SW8       29.81F
HAYWARD        CLOUDY    68  64  87 S9        29.83F
SIREN          CLOUDY    73  65  76 SW6       29.81F
RICE LAKE      CLOUDY    69  63  80 SE9       29.85S
LADYSMITH      CLOUDY    69  63  81 S8        29.88S
EAU CLAIRE     CLOUDY    72  65  78 S9        29.84S
MENOMONIE      CLOUDY    74  66  76 SE8       29.84R
NEW RICHMOND   CLOUDY    75  65  71 SW5       29.82S
OSCEOLA        CLOUDY    76  67  72 S7        29.84S
$$

WIZ003>005-009-010-017-018-252100-
NORTH CENTRAL WISCONSIN

CITY           SKY/WX    TMP DP  RH WIND       PRES   REMARKS
WOODRUFF       CLOUDY    73  63  70 S12       29.86F
RHINELANDER    CLOUDY    68  60  75 SW8       29.89S
EAGLE RIVER    LGT RAIN  65  59  78 SW5       29.87F
LAND O LAKES   CLOUDY    70  60  71 S8        29.87F
PHILLIPS       CLOUDY    69  63  80 S7        29.86F
TOMAHAWK       CLOUDY    66  60  81 CALM      29.89S
MEDFORD        CLOUDY    64  61  89 SW9       29.90R
MERRILL        CLOUDY    67  61  81 W8        29.89R
$$

WIZ029-030-035-036-043>047-252100-
CENTRAL WISCONSIN

CITY           SKY/WX    TMP DP  RH WIND       PRES   REMARKS
WAUSAU         CLOUDY    67  60  78 SW12      29.88R
MOSINEE        CLOUDY    66  63  88 SW12      29.91S
MARSHFIELD     CLOUDY    67  61  81 SW12      29.89S
STEVENS POINT  CLOUDY    65  58  78 S12       29.90S
WAUPACA        CLOUDY    73  59  61 S12       29.90S
WAUTOMA        NOT AVBL
WISC RAPIDS    CLOUDY    68  61  78 S10       29.91S
CAMP DOUGLAS   NOT AVBL
$$

WIZ011>013-019>022-031-037>040-048>050-252100-
NORTHEAST WISCONSIN

CITY           SKY/WX    TMP DP  RH WIND       PRES   REMARKS
ANTIGO         CLOUDY    66  60  82 S9        29.90S
STURGEON BAY   CLOUDY    73  57  56 S14       29.91F
GREEN BAY      PTSUNNY   73  58  59 S12G22    29.90F
MANITOWOC      NOT AVBL
APPLETON       PTSUNNY   72  57  60 SW14      29.93S
CLINTONVILLE   CLOUDY    70  57  64 SW10      29.89S
OSHKOSH        MOSUNNY   73  61  65 SW14G23   29.91F
$$

WIZ032>034-041-042-053>061-252100-
SOUTHWEST WISCONSIN

CITY           SKY/WX    TMP DP  RH WIND       PRES   REMARKS
LA CROSSE      CLOUDY    74  63  68 S8        29.86S
SPARTA         CLOUDY    70  61  72 S8        29.89S
VIROQUA        CLOUDY    70  62  76 SW3       29.90F
BOSCOBEL       CLOUDY    72  62  71 VRB7      29.90S
PRAIRIE DU CHI CLOUDY    70  61  73 E5        29.87F
PLATTEVILLE    CLOUDY    67  62  83 SE7       29.92S
$$

WIZ056-057-062-063-064-067-068-252100-
SOUTH CENTRAL WISCONSIN

CITY           SKY/WX    TMP DP  RH WIND       PRES   REMARKS
BARABOO/DELLS  CLOUDY    67  57  70 S8        29.92R
LONE ROCK      NOT AVBL
WATERTOWN      PTSUNNY   68  58  71 S12G20    29.91S
MADISON        PTSUNNY   71  59  65 S15       29.92F
MIDDLETON      CLOUDY    70  58  66 SW9       29.93S
MONROE         CLOUDY    64  59  82 S5        29.95S
JANESVILLE     NOT AVBL
$$

WIZ051-052-058>065-066-070>072-252100-
SOUTHEAST WISCONSIN

CITY           SKY/WX    TMP DP  RH WIND       PRES   REMARKS
MILWAUKEE      CLOUDY    70  56  61 SW12      29.95R
WAUKESHA       PTSUNNY   66  57  72 MISG      29.94F
MILWAUKEE/TIMM MOSUNNY   70  55  60 S8G16     29.95R
RACINE         CLOUDY    70  56  61 SW9       29.96F
BURLINGTON     CLOUDY    67  56  67 SW10      29.95S
KENOSHA        CLOUDY    71  55  56 SW10      29.95F
FOND DU LAC    MOSUNNY   71  58  63 SW13      29.93F
SHEBOYGAN      CLOUDY    69  58  67 SW13      29.94R
WEST BEND      DRIZZLE   64  59  82 NW3       29.96R
JUNEAU         MOSUNNY   67  58  72 S6        29.96R
$$

LSZ147-162-252100-
LAKE SUPERIOR

STATION/POSITION TIME  TEMP    WIND        PRES    WAVE
                       AIR SEA DIR/SP/G            HT/PER
                 (UTC) (F)     (DEG/KT/KT) (MB)    (FT/S)
W MID LAKE BUOY  1850   55 50  220/  6/  8 1009.7R   1
PORT WING        1900   64      80/  3/  5 1009.5F
SAXON HARBOR     1940             CALM     1009.5S
$$

LMZ867-665-643>646-252100-
LAKE MICHIGAN

STATION/POSITION TIME  TEMP    WIND        PRES    WAVE
                       AIR SEA DIR/SP/G            HT/PER
                 (UTC) (F)     (DEG/KT/KT) (MB)    (FT/S)
N MID LAKE BUOY  1850   60 56  210/ 14/ 16 1012.2F   3/ 4
NORTHPORT PIER   1900   66     150/  5/  7 1012.9S
KEWAUNEE LAKESHO 1900   56     180/ 10/ 11 1013.8F
SHEBOYGAN LAKESH 1900   65     180/ 15/ 15 1013.5F
PORT WASHINGTON  1900   62      80/  1/  2 1013.9F
ATWATER BUOY     1900   67     200/ 12     1014.6F
MILWAUKEE LAKESH 1900   68     220/ 11/ 14   N/A
S MID LAKE BUOY  1850   64 61  170/ 10/ 12 1014.7F   1/ 3
KENOSHA   LAKESH 1900   71     220/ 10/ 13 1013.9S
$$

TC  - TEMPERATURE IN CELSIUS
VSB - VISIBILITY IN STATUTE MILES
WCI - WIND CHILL INDEX
HX  - HEAT INDEX



USA.gov is the U.S. government's official web portal to all federal, state and local government web resources and services.